Location: Pitton
(51.0667°N, 1.7000°W)
Time: 02:25:36
(UTC+00:00)

Cosmos 407 Rocket - Pass Details

Date: 17 September 2019
Orbit: 744 x 786 km, 74.0° (Epoch: 22 October)

Event Time Altitude Azimuth Distance (km) Brightness Sun altitude
Rises 18:46:02 0° 339° (NNW) 3,213 7.2 -5.3°
Reaches altitude 10° 18:48:40 10° 350° (N) 2,280 6.3 -5.7°
Maximum altitude 18:53:15 31° 52° (NE) 1,291 4.4 -6.4°
Drops below altitude 10° 18:57:47 10° 115° (ESE) 2,259 5.3 -7.1°
Enters shadow 18:58:20 - 118° (ESE) 2,446 5.5 -7.2°
